Date String (YYYY-MM-DD hh:mm:ss) UTC,Instrument flags,Ambient pressure (hPa),Sample flow (lpm),Bypass flow (lpm),Sample temperature (°C),Ambient temperature (°C),ASC tube jacket temperature (°C),LED temperature (°C),Box temperature (°C),Sample RH (%),Span deviation,Mass concentration (μg/m³),Mass concentration (μg/m³),Mass concentration (μg/m³)
DateTimeUTC,F1_M11,P_M11,Q1_M11,Q2_M11,T1_M11,T2_M11,T3_M11,T4_M11,T5_M11,U1_M11,ZSPAN_M11,X2_M11,X0_M11,X1_M11
2021-10-10 03:00:00,,0822.1,4.99,0.00,29.7,28.9,00.0,38.8,31.5,10.3,0000.0,0001.36,0002.11,0001.01
2021-10-10 03:01:00,,0822.2,5.00,0.00,29.7,28.9,00.0,38.8,31.5,10.3,0000.0,0001.36,0002.06,0001.02
2021-10-10 03:02:00,,0822.2,5.01,0.00,29.7,28.9,00.0,38.8,31.5,10.3,0000.0,0001.38,0002.10,0001.02
2021-10-10 03:03:00,,0822.2,4.99,0.00,29.7,28.9,00.0,38.8,31.5,10.3,0000.0,0001.36,0002.05,0001.02
2021-10-10 03:04:00,,0822.2,5.00,0.00,29.8,28.9,00.0,38.8,31.5,10.2,0000.0,0001.32,0001.96,0001.01
2021-10-10 03:05:00,,0822.2,5.01,0.00,29.7,28.9,00.0,38.8,31.5,10.2,0000.0,0001.31,0001.92,0000.99
2021-10-10 03:06:00,,0822.2,5.01,0.00,29.7,28.9,00.0,38.8,31.5,10.1,0000.0,0001.29,0001.85,0000.98
2021-10-10 03:07:00,,0822.3,4.98,0.00,29.7,28.9,00.0,38.8,31.4,10.1,0000.0,0001.29,0002.09,0000.98
2021-10-10 03:08:00,,0822.3,4.99,0.00,29.7,28.9,00.0,38.8,31.4,10.1,0000.0,0001.27,0002.18,0000.97
2021-10-10 03:09:00,,0822.3,5.00,0.00,29.7,28.9,00.0,38.8,31.4,10.0,0000.0,0001.23,0002.13,0000.96
2021-10-10 03:10:00,,0822.3,5.01,0.00,29.7,28.8,00.0,38.8,31.4,10.1,0000.0,0001.17,0002.00,0000.94
2021-10-10 03:11:00,,0822.4,4.99,0.00,29.7,28.8,00.0,38.8,31.4,10.1,0000.0,0001.15,0001.99,0000.93
2021-10-10 03:12:00,,0822.4,5.01,0.00,29.7,28.8,00.0,38.8,31.4,10.2,0000.0,0001.15,0002.02,0000.92
2021-10-10 03:13:00,,0822.4,4.99,0.00,29.7,28.8,00.0,38.8,31.4,10.3,0000.0,0001.14,0002.01,0000.91
2021-10-10 03:14:00,,0822.4,4.98,0.00,29.7,28.8,00.0,38.8,31.4,10.3,0000.0,0001.14,0002.57,0000.90
2021-10-10 03:15:00,,0822.4,5.01,0.00,29.7,28.8,00.0,38.8,31.4,10.4,0000.0,0001.12,0002.54,0000.89
2021-10-10 03:16:00,,0822.4,4.99,0.00,29.7,28.8,00.0,38.8,31.4,10.4,0000.0,0001.13,0002.57,0000.90
2021-10-10 03:17:00,,0822.4,5.00,0.00,29.7,28.8,00.0,38.8,31.4,10.4,0000.0,0001.14,0002.61,0000.90
2021-10-10 03:18:00,,0822.3,5.00,0.00,29.7,28.8,00.0,38.8,31.4,10.5,0000.0,0001.16,0002.46,0000.90
2021-10-10 03:19:00,,0822.2,5.00,0.00,29.7,28.8,00.0,38.8,31.4,10.6,0000.0,0001.19,0002.42,0000.91
2021-10-10 03:20:00,,0822.2,5.00,0.00,29.7,28.8,00.0,38.8,31.4,10.5,0000.0,0001.21,0002.44,0000.92
2021-10-10 03:21:00,,0822.3,5.00,0.00,29.7,28.8,00.0,38.8,31.3,10.4,0000.0,0001.23,0002.58,0000.94
2021-10-10 03:22:00,,0822.4,5.00,0.00,29.6,28.7,00.0,38.8,31.3,10.5,0000.0,0001.21,0002.52,0000.94
2021-10-10 03:23:00,,0822.4,4.99,0.00,29.6,28.7,00.0,38.8,31.3,10.5,0000.0,0001.21,0002.48,0000.94
2021-10-10 03:24:00,,0822.3,5.00,0.00,29.6,28.6,00.0,38.8,31.3,10.6,0000.0,0001.23,0002.53,0000.95
2021-10-10 03:25:00,,0822.3,5.00,0.00,29.6,28.7,00.0,38.8,31.2,10.6,0000.0,0001.21,0002.02,0000.94
2021-10-10 03:26:00,,0822.3,5.00,0.00,29.6,28.6,00.0,38.8,31.2,10.7,0000.0,0001.22,0001.98,0000.95
2021-10-10 03:27:00,,0822.3,5.01,0.00,29.6,28.6,00.0,38.8,31.3,10.7,0000.0,0001.22,0002.07,0000.95
2021-10-10 03:28:00,,0822.4,5.00,0.00,29.6,28.6,00.0,38.8,31.2,10.7,0000.0,0001.20,0002.02,0000.95
2021-10-10 03:29:00,,0822.4,4.98,0.00,29.6,28.5,00.0,38.8,31.2,10.5,0000.0,0001.20,0001.95,0000.95
2021-10-10 03:30:00,,0822.3,5.01,0.00,29.6,28.6,00.0,38.8,31.2,10.6,0000.0,0001.16,0001.85,0000.94
2021-10-10 03:31:00,,0822.3,5.00,0.00,29.6,28.5,00.0,38.8,31.2,10.6,0000.0,0001.14,0001.78,0000.94
2021-10-10 03:32:00,,0822.4,5.00,0.00,29.6,28.5,00.0,38.8,31.2,10.6,0000.0,0001.15,0001.70,0000.94
2021-10-10 03:33:00,,0822.3,4.99,0.00,29.5,28.5,00.0,38.7,31.2,10.5,0000.0,0001.18,0001.99,0000.94
2021-10-10 03:34:00,,0822.3,5.01,0.00,29.5,28.5,00.0,38.7,31.1,10.3,0000.0,0001.18,0002.57,0000.94
2021-10-10 03:35:00,,0822.4,4.98,0.00,29.5,28.5,00.0,38.7,31.2,10.0,0000.0,0001.17,0002.52,0000.95
2021-10-10 03:36:00,,0822.2,5.02,0.00,29.5,28.5,00.0,38.7,31.2,10.0,0000.0,0001.17,0002.49,0000.97
2021-10-10 03:37:00,,0822.3,4.99,0.00,29.5,28.5,00.0,38.7,31.1,10.1,0000.0,0001.16,0002.46,0000.97
2021-10-10 03:38:00,,0822.4,4.99,0.00,29.5,28.5,00.0,38.7,31.2,10.4,0000.0,0001.17,0002.93,0000.98
2021-10-10 03:39:00,,0822.4,4.99,0.00,29.5,28.5,00.0,38.7,31.1,10.9,0000.0,0001.26,0003.63,0000.99
2021-10-10 03:40:00,,0822.5,5.02,0.00,29.5,28.4,00.0,38.7,31.1,11.1,0000.0,0001.34,0003.90,0001.01
2021-10-10 03:41:00,,0822.5,4.99,0.00,29.5,28.4,00.0,38.7,31.1,11.3,0000.0,0001.42,0005.24,0001.03
2021-10-10 03:42:00,,0822.6,5.01,0.00,29.5,28.4,00.0,38.7,31.1,11.5,0000.0,0001.49,0005.46,0001.05
2021-10-10 03:43:00,,0822.6,4.98,0.00,29.5,28.4,00.0,38.7,31.1,11.5,0000.0,0001.57,0005.81,0001.07
2021-10-10 03:44:00,,0822.6,5.00,0.00,29.4,28.4,00.0,38.7,31.0,11.6,0000.0,0001.58,0005.66,0001.08
2021-10-10 03:45:00,,0822.6,5.01,0.00,29.4,28.4,00.0,38.7,31.1,11.6,0000.0,0001.62,0005.23,0001.09
2021-10-10 03:46:00,,0822.6,5.00,0.00,29.4,28.4,00.0,38.7,31.1,11.6,0000.0,0001.65,0005.88,0001.09
2021-10-10 03:47:00,,0822.6,5.01,0.00,29.4,28.5,00.0,38.6,31.1,11.6,0000.0,0001.74,0006.05,0001.10
2021-10-10 03:48:00,,0822.6,5.00,0.00,29.5,28.5,00.0,38.6,31.2,11.7,0000.0,0001.78,0006.13,0001.11
2021-10-10 03:49:00,,0822.5,4.99,0.00,29.5,28.5,00.0,38.6,31.2,11.6,0000.0,0001.78,0005.58,0001.12
2021-10-10 03:50:00,,0822.6,5.01,0.00,29.5,28.6,00.0,38.6,31.2,11.6,0000.0,0001.73,0005.00,0001.13
2021-10-10 03:51:00,,0822.6,5.01,0.00,29.5,28.6,00.0,38.6,31.2,11.8,0000.0,0001.67,0004.86,0001.13
2021-10-10 03:52:00,,0822.6,5.00,0.00,29.5,28.6,00.0,38.6,31.2,11.7,0000.0,0001.65,0003.64,0001.14
2021-10-10 03:53:00,,0822.6,5.00,0.00,29.5,28.6,00.0,38.7,31.3,11.7,0000.0,0001.64,0003.60,0001.14
2021-10-10 03:54:00,,0822.6,5.00,0.00,29.5,28.6,00.0,38.7,31.3,11.5,0000.0,0001.59,0003.34,0001.13
2021-10-10 03:55:00,,0822.6,5.01,0.00,29.5,28.6,00.0,38.7,31.2,11.5,0000.0,0001.58,0003.37,0001.13
2021-10-10 03:56:00,,0822.7,5.00,0.00,29.5,28.6,00.0,38.7,31.2,11.6,0000.0,0001.57,0003.28,0001.14
2021-10-10 03:57:00,,0822.7,5.00,0.00,29.5,28.6,00.0,38.7,31.2,11.6,0000.0,0001.57,0003.97,0001.14
2021-10-10 03:58:00,,0822.7,5.01,0.00,29.5,28.6,00.0,38.7,31.2,11.7,0000.0,0001.56,0004.52,0001.15
2021-10-10 03:59:00,,0822.7,4.99,0.00,29.5,28.6,00.0,38.7,31.2,11.7,0000.0,0001.62,0005.48,0001.17
